Погода в Летках

Украина / Киевская область     50°42′09″N   30°44′45″E
темп.,
°C
ветер,
м/с
пор.,
м/с
влажн.,
%
обл.,
%
осадки,
мм/ч
давл.,
гПа
погр.,
м
19 мая, ср
ср1900:00+12юв369489 0.0 999100
03:00+11вюв3597100 0.0 99994
06:00+11вюв2598100 0.0 1000173
09:00+14юв338592 0.0 1000552
12:00+17ююв347095 0.1 10011068
15:00+20ююз336043 1.1 10021396
18:00+14сз81091100 1.8 1003536
21:00+11сз7109293 1.9 1005536
20 мая, чт
чт2000:00+11сз6991100 0.1 1005677
03:00+10зсз71093100 0.5 1005642
06:00+10зсз71091100 0.0 1006651
09:00+11сз71282100 0.1 1007763
12:00+14сз596641 0.0 10081166
15:00+18сз675078 0.0 10092152
18:00+16зсз4769100 0.0 1010191
21:00+14ссз3871100 0.1 1011235
21 мая, пт
пт2100:00+13сз2377100 0.0 101260
03:00+11с2387100 0.0 101433
06:00+11с3586100 0.0 1015154
09:00+13ссв347799 0.0 1015343
12:00+17с3362100 0.1 10161159
15:00+19ссв2352100 0.4 10161725
18:00+17ссв356450 0.3 1016618
21:00+13ссв347644 0.3 101759
22 мая, сб
сб2200:00+11св36837 0.0 1017101
03:00+9св35875 0.0 101785
06:00+10св34880 0.0 101891
09:00+15всв34711 0.0 1018427
12:00+19всв34600 0.0 10171182
15:00+21вюв445545 0.0 10151641
18:00+19в236843 0.0 1015166
21:00+15вюв33824 0.1 101430
23 мая, вс
вс2300:00+13вюв34910 0.0 101347
03:00+12ююв339516 0.0 101244
06:00+12ююв23958 0.0 101267
09:00+17зюз3477100 0.0 1011368
12:00+20з3462100 0.0 10101026
15:00+22з2453100 0.4 10101354
18:00+18сз5972100 0.1 1010478
21:00+15сз4877100 0.1 1012216